Regional Weather Roundup
Issued by NWS Green Bay, WI

Home | Current Version | Previous Version | Graphics & Text | Print | Product List | Glossary Off
Versions: 1 2 3 4 5 6 7 8 9 10 11 12 13 14 15 16 17 18 19 20 21 22 23 24 25 26 27 28 29 30 31 32 33 34 35 36 37 38 39 40 41 42 43 44 45 46 47 48 49 50

000
ASUS43 KGRB 020200
RWRGRB

NORTH-CENTRAL AND NORTHEAST WISCONSIN REGIONAL WEATHER ROUNDUP
NATIONAL WEATHER SERVICE GREEN BAY WI
900 PM CDT SAT AUG 01 2015

WIZ005-009-010>012-018-019-020300-
NORTH CENTRAL WISCONSIN

CITY           SKY/WX    TMP DP  RH WIND       PRES   REMARKS
IRONWOOD       CLEAR     70  55  60 SW7       29.75S
MANITOWISH WTR NOT AVBL
ARBOR VITAE    NOT AVBL
EAGLE RIVER    NOT AVBL
LAND O LAKES   NOT AVBL
RHINELANDER    PTCLDY    65  55  70 CALM      29.84F
PHILLIPS       PTCLDY    68  58  69 SW5       29.82F
ANTIGO         NOT AVBL
TOMAHAWK       NOT AVBL
MERRILL        NOT AVBL
$$

WIZ013-073-020300-
NORTHEAST WISCONSIN

CITY           SKY/WX    TMP DP  RH WIND       PRES   REMARKS
IRON MOUNTAIN  CLEAR     66  55  67 CALM      29.79F
MARINETTE      CLEAR     70  52  52 W3        29.80S
$$

WIZ017-030-035>037-045-020300-
CENTRAL WISCONSIN

CITY           SKY/WX    TMP DP  RH WIND       PRES   REMARKS
MEDFORD        NOT AVBL
WAUSAU         CLEAR     72  55  55 SW5       29.83S
MOSINEE        CLEAR     68  54  60 CALM      29.85F
MARSHFIELD     CLEAR     70  59  68 S3        29.84F
WISC RAPIDS    CLEAR     70  58  65 SW3       29.85F
STEVENS POINT  NOT AVBL
WAUPACA        NOT AVBL
SHAWANO        NOT AVBL
CLINTONVILLE   CLEAR     68  54  60 S3        29.83S
$$

WIZ038-039-048-051-020300-
FOX VALLEY

CITY           SKY/WX    TMP DP  RH WIND       PRES   REMARKS
NWS GREEN BAY  CLEAR     65  59  81 CALM      29.83S
APPLETON       PTCLDY    73  52  46 VRB3      29.86R
OSHKOSH        CLEAR     67  57  70 S3        29.84S
FOND DU LAC    CLEAR     71  59  65 SW5       29.86R
$$

WIZ022-050-052-020300-
EAST CENTRAL WISCONSIN

CITY           SKY/WX    TMP DP  RH WIND       PRES   REMARKS
STURGEON BAY   CLEAR     70  54  56 S5        29.84S
MANITOWOC      NOT AVBL
SHEBOYGAN      CLEAR     66  59  78 CALM      29.86R
$$

LMZ563-521-522-541>543-020300-
LAKESHORE

STATION/POSITION TIME  TEMP    WIND        PRES    VSBY  WAVE
                       AIR SEA DIR/SP/G                  HT/PER
                 (UTC) (F)     (DEG/KT/KT) (MB)    (MI)  (FT/S)
SHEBOYGAN LKSHOR 0100   80     250/  2/  3 1010.6F
KEWAUNEE LKSHORE 0100   77     260/  3/  4 1009.7F
ALGOMA MARINA    0112             CALM       N/A
TWO RIVERS CG    0125   65 61              1010.7      6   0
NORTHPORT PIER   0100   76     270/  2/  4 1009.1S
N MID LAKE BUOY  0050   70 69  210/ 17/ 19 1008.5F         2/ 3
SISTER BAY LKSHO 0114   76     280/  7/  7   N/A
CHAMBERS ISLAND  0100   73     200/  2/  4 1009.1S
MENOMINEE LKSHOR 0100   78     220/  5/  9 1010.2F
$$



USA.gov is the U.S. government's official web portal to all federal, state and local government web resources and services.